This is the latest recevied weather packets stored in our database for station/object KD0ISH. If no packets are shown the sender has not sent any weather packets the latest 10 day(s).
| Time | Temp. | Humidity | Pressure | Rain* | Wind** | Luminosity | Snow |
|---|---|---|---|---|---|---|---|
| 1777940134 | 24.44° C | 59% | 1004.7 hPa | 0 mm | - | 27 W/m² | - |
| 1777939831 | 24.44° C | 58% | 1004.5 hPa | 0 mm | - | 29 W/m² | - |
| 1777939529 | 24.44° C | 58% | 1004.7 hPa | 0 mm | - | 32 W/m² | - |
| 1777939226 | 25° C | 58% | 1004.5 hPa | 0 mm | - | 34 W/m² | - |
| 1777938923 | 25° C | 58% | 1004.9 hPa | 0 mm | - | 34 W/m² | - |
| 1777938619 | 25° C | 57% | 1004.9 hPa | 0 mm | - | 32 W/m² | - |
| 1777938317 | 25.56° C | 56% | 1004.9 hPa | 0 mm | - | 39 W/m² | - |
| 1777938014 | 25.56° C | 55% | 1004.7 hPa | 0 mm | - | 51 W/m² | - |
| 1777937709 | 26.11° C | 55% | 1004.8 hPa | 0 mm | - | 59 W/m² | - |
| 1777937406 | 26.11° C | 55% | 1005 hPa | 0 mm | - | 130 W/m² | - |
| 1777937103 | 26.11° C | 54% | 1004.8 hPa | 0 mm | - | 82 W/m² | - |
| 1777936801 | 26.67° C | 54% | 1004.8 hPa | 0 mm | - | 135 W/m² | - |
| 1777936497 | 26.67° C | 54% | 1004.8 hPa | 0 mm | - | 163 W/m² | - |
| 1777936193 | 26.67° C | 53% | 1004.8 hPa | 0 mm | - | 176 W/m² | - |
| 1777935890 | 26.67° C | 53% | 1004.9 hPa | 0 mm | - | 186 W/m² | - |
| 1777935589 | 26.67° C | 53% | 1004.7 hPa | 0 mm | - | 117 W/m² | - |
| 1777935285 | 26.67° C | 54% | 1004.5 hPa | 0 mm | - | 225 W/m² | - |
| 1777934982 | 26.67° C | 54% | 1004.7 hPa | 0 mm | - | 239 W/m² | - |
| 1777934679 | 26.67° C | 55% | 1004.9 hPa | 0 mm | - | 271 W/m² | - |
| 1777934376 | 26.67° C | 53% | 1004.7 hPa | 0 mm | - | 285 W/m² | - |
| 1777934072 | 26.67° C | 53% | 1004.9 hPa | 0 mm | - | 303 W/m² | - |
| 1777933767 | 26.67° C | 55% | 1004.9 hPa | 0 mm | - | 196 W/m² | - |
| 1777933465 | 26.67° C | 56% | 1004.9 hPa | 0 mm | - | 122 W/m² | - |
| 1777933163 | 26.67° C | 54% | 1004.8 hPa | 0 mm | - | 304 W/m² | - |
| 1777932860 | 27.22° C | 54% | 1005.1 hPa | 0 mm | - | 333 W/m² | - |
* Rain latest hour (hover to see other rain measurements)
** Current wind speed in m/s (hover to see current wind gust speed)